Theta_e
317 317 317 317 318 318 318 318 319 319 319 318 318 317 318 318 317 316 315 315 314 314 314 314 314 316 316 316 317 317 317 318 319 320 320 321 322 322 322 324 325 322 320 321 323 325 325 326 325 324 322 319 318 316 317 319 320 320 320 321 321 321 320 320 322 323 324 323 324 324 323 323 322 320 320 321 321 320 320 319 319 317 316 314 313
317 317 316 317 317 317 318 318 318 318 318 317 317 317 318 317 316 315 314 314 313 313 313 313 313 313 313 314 314 315 316 316 316 316 317 318 320 321 323 323 321 320 322 323 323 323 323 324 323 322 320 319 317 316 317 320 322 322 321 321 321 320 320 321 323 324 324 324 324 323 322 322 322 321 321 321 320 319 319 318 317 316 314 313 313
316 316 316 316 317 317 317 317 317 317 317 317 317 317 317 316 315 314 313 312 311 311 311 311 312 312 312 312 312 313 314 315 315 315 314 315 317 319 322 320 315 316 320 320 319 321 320 320 320 320 320 319 317 317 317 319 321 323 322 321 321 321 322 323 323 323 324 323 322 321 320 321 321 321 320 319 318 317 318 317 316 315 313 313 313
315 315 315 315 316 316 316 317 317 317 317 317 317 316 316 314 313 313 312 311 311 310 310 311 311 311 311 311 311 311 311 311 312 313 312 313 315 315 316 315 313 315 317 317 319 322 321 321 322 321 321 319 317 317 318 320 321 322 321 321 322 322 322 323 322 322 322 323 322 320 320 321 321 319 317 316 316 316 316 316 315 314 313 313 313
313 313 313 313 314 314 315 315 315 316 316 316 315 314 313 312 312 312 311 311 311 310 311 311 310 311 310 310 310 310 310 310 310 311 311 311 313 311 310 311 312 314 316 318 320 322 322 323 322 321 319 317 315 317 318 319 320 320 320 321 321 321 321 322 321 321 320 321 322 321 320 320 319 316 315 315 315 315 315 315 314 313 313 312 312
313 312 312 312 312 312 312 313 313 313 313 313 312 312 312 311 311 311 311 311 311 310 310 310 310 310 310 310 310 310 310 310 310 310 310 310 310 310 310 312 312 312 316 319 320 320 321 322 321 320 318 316 316 317 318 319 320 320 320 321 321 321 321 321 320 320 320 319 320 321 320 319 317 316 316 316 315 315 314 313 313 312 312 312 311
312 312 312 312 312 312 312 312 312 312 312 311 311 311 311 311 311 311 311 311 311 310 310 310 310 310 310 310 310 310 310 310 310 310 310 310 310 309 310 310 309 311 316 320 320 320 320 320 319 318 317 318 319 320 319 319 320 320 321 321 320 320 320 319 320 320 320 320 320 320 319 318 317 317 317 316 315 314 313 312 311 311 311 310 310
313 312 312 312 312 312 312 312 311 311 311 311 311 311 311 311 311 311 311 310 310 310 310 310 310 310 310 311 310 310 310 310 310 310 310 310 311 310 309 308 308 312 317 317 317 317 317 316 315 315 317 319 319 319 319 320 319 319 319 320 319 319 319 319 320 320 320 319 319 318 318 318 317 317 316 315 315 314 313 312 311 311 310 309 308
313 313 312 312 312 312 311 311 311 311 311 311 311 311 311 311 311 310 311 310 311 311 311 311 311 311 311 310 310 310 310 310 310 310 311 311 311 311 310 309 310 313 315 314 313 313 311 310 311 313 316 318 317 317 319 319 319 318 318 318 319 318 318 318 319 320 319 318 318 317 317 316 316 315 315 315 314 313 312 311 310 309 308 307 306
313 313 313 312 312 311 311 311 311 311 311 311 311 311 311 311 311 310 311 311 311 311 311 311 311 311 310 310 310 310 310 310 310 311 311 311 311 311 310 310 310 312 311 310 310 309 308 309 311 314 316 316 316 318 319 319 319 319 318 319 319 318 317 317 317 318 318 318 317 317 316 316 315 315 315 314 313 311 310 309 309 308 306 305 305
313 313 313 312 312 311 311 311 311 311 311 311 311 311 310 310 311 311 311 312 312 312 311 311 311 311 310 310 310 310 310 310 310 311 311 311 311 311 310 310 310 309 309 308 308 308 308 310 312 314 316 316 317 317 318 320 320 319 318 318 317 317 317 316 316 317 317 317 317 316 316 315 315 315 314 313 311 309 308 307 307 306 305 304 304
313 313 312 312 311 311 311 311 312 311 311 311 311 310 311 311 311 312 312 312 312 311 311 311 310 310 310 310 310 310 310 310 310 311 311 311 311 311 311 311 310 309 309 308 308 308 309 309 311 314 316 317 317 317 318 318 319 319 318 317 316 317 317 318 317 316 317 317 316 316 316 315 314 313 312 310 308 306 305 305 305 304 304 302 301
313 313 312 312 311 311 311 311 311 311 311 311 311 311 312 312 312 312 312 312 312 311 311 311 310 310 310 310 310 310 310 310 310 311 311 311 311 311 311 311 311 310 309 307 307 308 309 309 311 314 316 316 316 316 316 316 317 317 317 317 317 317 318 318 317 316 316 315 315 315 314 313 312 310 308 305 304 303 303 303 303 301 298 296 294
312 312 312 312 311 311 311 311 311 311 311 311 311 312 312 312 312 312 312 312 311 311 311 310 310 310 310 310 310 310 309 309 309 310 310 310 310 310 310 311 311 310 308 307 307 309 310 310 311 314 315 315 315 314 314 315 316 316 316 316 316 316 316 316 315 315 315 314 314 313 311 310 308 306 304 302 301 301 302 302 300 296 292 290 290
312 312 312 311 311 311 311 311 311 311 311 311 312 312 312 312 312 312 311 311 311 311 310 310 310 310 310 310 310 310 309 309 309 310 310 310 310 310 310 311 311 310 309 308 308 309 310 310 311 313 314 313 312 313 314 315 315 315 315 315 314 314 314 314 314 313 312 311 310 309 308 307 305 304 303 302 301 301 300 298 294 290 289 289 289
312 312 312 311 311 311 310 311 311 311 312 312 312 312 312 312 312 312 311 311 311 311 311 310 310 310 310 310 310 310 309 309 309 309 309 310 310 310 310 311 311 310 310 309 309 309 309 310 311 313 313 312 312 313 315 315 314 314 314 314 313 312 311 311 310 310 309 308 307 307 306 305 304 303 302 301 301 299 296 292 289 289 288 288 288
312 312 312 311 311 311 310 311 311 312 312 312 312 311 311 312 311 311 311 311 311 311 311 310 310 310 310 310 310 310 310 309 309 309 309 310 310 310 310 310 310 310 310 310 309 309 310 311 313 314 314 313 313 314 314 314 313 312 312 311 311 310 309 308 308 307 307 306 306 306 306 304 302 301 299 297 296 294 291 289 289 289 288 288 288
312 312 312 311 311 311 310 311 312 312 312 311 311 311 311 311 311 311 311 311 311 311 311 310 310 310 310 310 310 309 309 309 309 309 309 309 310 310 310 310 310 310 309 310 310 311 311 312 313 314 314 313 314 314 313 312 311 310 310 309 309 308 308 307 306 306 306 306 306 306 305 303 300 298 295 293 291 290 289 289 289 288 288 288 288
313 312 312 311 311 311 311 311 312 311 311 311 311 311 311 311 311 311 311 311 311 311 311 310 310 310 310 310 310 310 310 309 309 309 309 309 309 309 310 309 310 310 310 310 311 311 312 312 312 312 313 313 313 312 312 311 310 309 309 308 307 307 306 305 305 305 305 305 305 305 304 302 299 296 293 291 290 290 289 289 289 288 288 287 287
313 312 312 311 311 310 311 311 312 311 311 311 311 311 311 311 311 311 311 311 311 311 311 310 310 310 310 310 310 310 309 309 309 309 309 309 309 309 309 309 309 310 310 311 311 312 312 312 312 311 311 312 312 311 310 309 308 308 307 306 306 305 305 305 305 305 305 305 304 304 303 302 300 297 294 292 291 290 289 289 289 288 288 287 287
314 313 312 311 311 311 311 311 312 311 311 311 311 311 311 311 311 311 311 311 311 310 311 310 310 310 310 310 310 310 309 309 309 309 309 309 309 309 309 309 309 310 311 311 311 311 311 311 311 310 310 310 310 309 308 307 307 306 306 306 305 305 305 305 305 304 305 305 304 303 302 301 301 300 298 295 293 291 290 289 289 288 288 287 287
315 314 313 311 311 310 311 311 311 311 311 311 311 311 311 311 311 311 311 311 310 311 310 310 310 310 310 310 310 310 309 309 309 309 309 309 309 309 309 309 309 310 311 310 310 310 310 310 309 309 309 308 308 307 307 306 306 306 305 305 305 305 305 305 304 304 304 304 303 302 301 300 300 300 299 298 296 293 291 290 289 288 288 287 287
315 315 315 314 312 311 310 310 311 311 311 311 311 311 311 311 311 311 311 311 311 310 310 310 310 310 309 309 310 310 309 309 309 309 309 309 309 309 309 309 309 310 310 310 309 309 309 309 309 308 308 307 307 306 306 306 305 305 305 305 305 305 304 304 304 304 304 303 302 301 300 299 299 299 299 298 296 294 291 290 289 288 287 287 287
315 315 315 315 314 312 310 310 311 311 311 311 311 311 311 311 311 311 310 310 310 310 310 310 310 310 309 309 309 309 309 309 309 309 309 309 309 309 309 308 309 309 309 309 309 309 309 309 308 307 307 306 306 306 306 305 305 305 305 304 304 304 304 303 303 303 302 302 301 300 299 299 299 298 297 296 295 293 291 290 289 288 287 287 287
315 315 315 315 315 313 311 310 310 310 310 310 310 310 311 311 310 311 310 310 310 310 310 310 310 310 309 309 309 309 309 309 309 309 308 309 309 308 308 308 309 309 309 309 309 308 308 308 307 306 306 306 306 305 305 305 305 304 304 304 304 303 303 302 302 302 301 300 300 299 299 298 298 297 296 295 294 293 292 291 290 289 288 288 288
315 315 315 315 315 314 313 311 310 310 310 310 310 310 310 310 310 310 310 310 310 310 310 310 310 309 309 309 309 309 309 309 309 309 308 309 309 308 308 308 309 309 309 308 308 308 307 307 306 306 306 306 305 305 305 305 304 304 304 303 303 302 302 302 301 300 300 299 298 298 298 297 297 296 295 295 294 293 292 292 291 290 290 290 289
314 314 314 314 314 314 313 313 312 311 311 310 310 310 310 310 310 310 310 310 310 310 310 310 309 309 309 309 309 309 309 309 309 309 308 309 309 308 308 308 308 308 308 308 308 307 306 306 306 306 305 305 305 305 304 304 304 303 303 302 302 301 301 300 300 299 298 298 297 297 296 296 295 294 294 294 293 293 292 291 291 290 290 290 289
314 314 314 313 313 313 313 313 313 313 313 312 312 312 311 311 310 310 310 310 310 310 310 310 310 309 309 309 309 309 309 309 309 309 309 309 309 309 308 309 308 308 308 308 307 307 306 306 306 305 305 305 305 304 304 304 303 303 302 301 301 300 300 299 298 297 297 296 295 294 294 293 293 292 292 291 291 291 290 290 289 289 289 288 288
313 314 313 313 313 313 313 313 313 314 314 314 314 314 314 313 312 311 310 309 309 309 309 309 309 309 309 309 309 309 309 309 309 309 308 308 308 308 308 308 308 307 307 307 306 306 306 306 305 305 305 304 304 304 303 303 302 302 301 300 300 299 298 297 296 295 294 294 293 292 291 291 290 290 289 289 289 289 288 288 288 287 287 287 287
311 312 312 312 312 312 312 313 313 313 313 313 313 313 313 313 312 311 310 309 308 308 308 308 308 308 307 308 308 308 308 308 308 308 308 307 307 307 307 307 307 307 306 306 306 306 306 305 305 305 304 304 303 303 302 302 301 300 299 299 298 297 296 295 294 293 292 291 290 290 289 289 288 288 288 287 287 287 287 286 286 286 286 286 286
311 311 311 311 311 311 311 311 312 312 312 312 312 312 312 311 310 310 309 309 308 308 308 307 307 307 307 307 307 307 307 307 307 307 306 306 306 306 306 306 305 306 306 306 306 306 305 305 304 304 303 303 303 302 301 300 299 299 298 297 296 295 294 292 291 290 290 289 289 288 288 287 287 287 286 286 286 286 285 285 285 285 285 285 284
312 312 312 312 311 311 311 310 310 310 310 311 311 311 311 311 311 310 310 310 309 309 308 308 307 307 307 306 306 306 306 306 306 306 305 305 305 305 305 305 305 305 305 305 305 305 304 304 303 303 303 302 302 301 300 298 298 297 296 295 293 292 291 290 289 288 288 288 287 287 287 286 286 286 285 285 285 285 285 285 285 284 284 284 283
311 311 311 311 311 311 311 311 310 310 310 309 309 310 310 310 310 310 310 309 309 308 308 308 307 307 306 306 306 305 305 306 306 305 304 304 303 304 304 304 304 305 305 305 304 304 303 302 302 301 301 301 300 299 298 297 295 294 293 292 291 290 289 288 288 287 287 287 286 286 286 286 285 285 285 285 285 285 285 284 284 284 283 283 282
310 310 310 310 310 310 310 311 311 310 310 309 308 308 308 308 308 308 308 308 308 308 308 308 307 307 306 305 305 305 305 305 305 304 303 302 302 302 303 303 303 303 303 303 303 303 302 301 301 300 300 299 298 297 296 294 293 292 290 289 289 288 287 287 287 286 286 286 286 286 285 285 285 285 285 285 284 284 284 284 283 283 282 281 281
310 310 310 310 310 310 310 310 310 310 309 309 308 307 307 307 306 306 306 306 307 307 306 306 306 305 305 304 304 303 304 303 303 302 301 301 301 301 302 302 302 303 302 302 302 301 301 300 300 299 298 297 296 294 293 292 290 289 288 288 287 287 287 286 286 286 286 286 285 285 285 285 285 284 284 284 284 284 283 283 282 282 281 281 280
308 309 309 309 309 309 309 309 309 309 308 308 307 306 305 305 305 305 305 305 305 305 305 304 304 303 302 302 302 301 301 301 300 299 299 299 300 301 302 302 302 302 302 301 301 300 299 298 297 297 296 295 293 292 290 289 288 287 287 287 287 287 286 286 286 286 285 285 285 285 285 284 284 284 284 283 283 283 283 282 282 281 281 280 279
308 308 308 308 307 307 307 308 308 308 308 307 306 305 305 304 304 304 304 304 303 303 303 303 302 301 301 300 299 299 298 298 297 297 297 298 299 300 301 301 301 301 301 301 300 300 298 296 295 294 293 292 290 289 288 287 287 287 287 287 287 286 286 286 286 285 285 285 285 285 284 284 284 284 283 283 283 283 282 282 281 281 280 279 278
307 307 307 307 306 306 306 306 306 306 306 306 305 305 304 303 303 303 302 302 302 302 302 302 301 300 300 299 299 297 296 296 296 296 296 297 298 299 299 299 299 300 300 299 299 297 296 295 293 292 290 289 288 287 287 286 286 286 286 286 286 286 286 285 285 285 285 285 284 284 284 284 284 283 283 283 282 282 282 281 281 280 280 279 277
307 307 306 306 306 305 305 304 304 304 304 304 304 304 303 302 302 302 301 301 301 301 300 300 299 298 298 298 298 297 296 295 296 296 296 296 296 297 297 297 298 298 297 297 296 295 293 292 291 289 288 287 286 286 286 286 286 286 286 286 286 285 285 285 285 285 284 284 284 284 284 283 283 283 282 282 282 281 281 280 280 280 279 278 277
306 306 306 306 305 305 304 304 303 303 303 303 303 302 302 301 301 301 300 300 300 299 299 298 297 297 297 296 297 297 296 296 296 297 296 295 295 295 296 297 297 296 295 294 294 292 291 289 288 287 286 286 286 286 286 286 286 286 286 285 285 285 285 285 285 284 284 284 284 283 283 283 283 282 282 281 281 281 280 280 280 280 279 278 277
306 306 306 305 305 305 304 304 303 303 302 302 301 301 301 300 300 300 299 299 298 297 297 296 295 295 295 295 295 295 295 296 296 296 295 294 294 295 295 296 296 295 294 292 291 289 288 286 286 286 285 285 285 286 286 286 285 285 285 285 285 285 285 285 284 284 284 284 283 283 283 282 282 281 281 281 280 280 280 280 279 279 278 278 277
306 306 306 305 305 305 304 304 303 302 301 301 300 300 300 300 299 299 298 298 297 296 295 295 294 294 294 294 294 294 294 295 296 295 295 294 295 295 295 295 294 293 291 289 288 286 286 285 285 285 285 285 285 285 285 285 285 285 285 285 285 285 285 284 284 284 284 283 283 282 282 282 281 281 281 280 280 280 280 279 279 279 278 278 277
306 306 305 305 305 304 304 304 303 302 301 301 300 300 299 299 298 298 297 296 295 295 294 294 293 293 293 293 293 293 294 294 295 294 294 294 294 294 293 293 291 289 287 286 285 285 285 285 285 285 285 285 285 285 285 285 285 285 285 285 285 285 284 284 284 283 283 283 282 282 281 281 281 280 280 280 280 280 279 279 279 278 278 277 277
305 305 305 305 304 304 303 303 303 302 301 300 300 299 298 298 298 297 295 294 293 293 293 293 292 292 292 292 293 293 293 293 293 293 293 293 293 292 291 290 288 286 285 285 284 284 284 285 285 285 285 285 285 285 285 285 285 285 285 285 285 285 284 284 283 283 283 282 282 281 281 280 280 280 280 279 279 279 279 279 278 278 278 277 277
303 303 303 304 303 303 303 302 302 302 301 300 298 298 297 297 296 295 294 293 292 292 292 291 292 292 292 293 293 292 292 291 291 291 292 292 291 290 288 286 285 284 284 284 284 284 285 285 285 285 285 285 286 286 286 286 286 285 285 285 285 284 284 283 283 282 282 281 281 280 280 280 280 279 279 279 279 279 278 278 278 278 277 277 277
302 302 302 302 302 302 302 301 301 301 299 298 297 295 295 294 293 292 292 291 291 291 291 291 291 291 292 292 292 292 291 291 291 291 290 289 288 286 285 284 284 284 284 284 285 285 285 285 285 286 286 286 286 286 286 286 286 285 285 285 284 284 283 283 282 281 281 281 280 280 280 279 279 279 279 279 278 278 278 278 277 277 277 277 277
301 300 301 301 301 301 301 301 300 299 297 296 295 294 293 293 292 291 291 290 290 290 290 290 290 290 291 291 291 291 290 290 290 289 287 286 285 284 284 284 284 284 285 285 285 285 286 286 286 286 286 286 286 286 286 285 285 285 284 284 283 283 282 282 281 280 280 280 280 279 279 279 279 278 278 278 278 278 278 277 277 277 277 276 276
299 299 299 299 298 298 298 298 298 296 295 294 293 293 292 292 291 291 291 290 290 289 289 290 290 290 289 289 289 289 289 288 287 285 284 284 283 284 284 285 285 285 285 286 286 286 286 286 286 286 286 286 285 285 285 285 284 284 283 283 282 282 281 280 280 280 279 279 279 279 278 278 278 278 278 278 277 277 277 277 277 277 276 276 276
297 297 297 296 295 294 294 295 295 294 294 293 293 292 292 291 291 291 290 290 289 289 289 289 289 289 289 289 288 287 286 284 284 283 283 284 284 285 285 285 286 286 286 286 286 286 286 286 286 286 285 285 285 285 284 284 283 283 282 282 281 281 280 279 279 279 279 278 278 278 278 278 277 277 277 277 277 277 277 276 276 276 276 276 276
294 293 293 292 292 292 292 292 292 293 293 293 292 292 292 291 291 291 291 290 290 289 289 289 289 289 288 287 285 284 283 283 284 284 285 285 286 286 286 286 286 286 286 286 286 286 286 285 285 285 285 284 284 284 283 283 282 282 281 281 280 279 279 279 278 278 278 278 277 277 277 277 277 277 277 276 276 276 276 276 276 276 276 276 275
290 290 290 290 290 291 291 291 291 292 292 292 292 291 291 291 291 290 290 290 289 289 288 288 287 286 285 284 283 283 284 284 285 286 286 286 286 287 286 286 286 286 286 286 285 285 285 285 285 284 284 284 283 283 282 282 281 280 280 279 279 278 278 278 277 277 277 277 277 277 276 276 276 276 276 276 276 276 276 276 276 276 276 275 275
Wind_Speed
27 27 28 29 30 32 32 33 32 31 30 30 30 30 29 29 28 27 26 25 25 25 25 25 25 25 25 25 25 24 24 24 24 23 23 23 24 25 25 25 27 27 26 26 26 27 29 29 28 26 22 23 26 28 28 26 26 28 27 27 29 30 28 30 38 42 40 38 38 41 41 36 33 32 32 32 32 34 34 32 33 34 33 32 35
25 26 26 27 30 30 31 30 30 29 29 30 30 30 29 29 28 27 27 26 25 25 25 25 25 25 25 25 24 24 24 24 23 23 23 24 25 25 26 27 28 27 28 30 28 26 28 28 27 26 25 26 26 26 25 24 25 26 26 26 27 27 27 31 37 39 38 35 35 37 35 32 32 33 32 32 30 31 33 33 33 33 31 31 32
24 25 26 27 28 28 29 29 29 29 29 30 31 30 30 29 28 28 27 26 25 25 26 25 25 25 25 24 24 24 24 23 23 23 23 23 23 24 25 26 27 26 27 27 24 22 23 24 27 27 27 27 27 26 25 24 22 23 24 26 26 27 29 33 36 38 36 32 30 30 29 29 32 32 30 28 27 28 31 33 33 32 30 30 30
23 25 25 25 26 27 28 29 29 30 30 31 31 30 30 29 28 27 26 26 26 26 26 25 25 25 24 24 24 23 23 22 22 23 23 23 24 25 26 26 25 23 23 21 20 21 24 26 27 26 26 27 28 27 25 22 20 21 24 25 26 28 30 31 32 35 37 33 28 26 27 30 31 28 26 26 26 28 31 32 32 31 31 31 31
22 23 23 24 25 26 28 28 29 29 30 30 29 29 29 28 26 26 26 26 26 25 26 26 25 24 23 23 23 22 22 21 22 23 24 24 26 27 26 24 21 21 21 21 21 24 26 28 26 24 25 26 26 25 24 22 23 24 25 25 26 28 28 25 24 28 35 35 30 25 25 26 26 25 25 26 27 29 31 33 33 33 34 33 32
22 22 22 22 23 25 26 26 27 27 28 28 27 27 26 25 25 26 26 26 26 25 25 25 24 23 23 22 21 21 22 22 23 24 25 25 26 26 24 22 21 22 22 23 24 25 26 27 26 24 24 24 24 24 24 24 25 25 24 24 24 24 23 22 21 23 27 29 28 26 23 23 24 25 25 27 29 30 31 33 35 35 36 36 34
22 22 22 22 24 25 25 25 26 26 26 26 26 25 25 25 26 26 26 26 26 25 24 23 22 22 21 21 21 22 23 24 25 25 25 26 26 25 25 24 23 24 24 25 26 27 28 28 27 26 25 24 24 24 23 23 25 25 24 23 23 24 23 22 21 20 21 22 23 23 23 23 26 27 28 30 31 31 31 34 35 35 36 36 35
23 22 23 24 25 25 25 25 26 27 26 26 26 26 25 26 26 26 26 26 25 24 22 22 21 21 21 21 22 23 24 24 25 25 25 25 24 24 25 24 24 24 26 27 28 28 29 29 28 27 26 25 24 23 22 22 24 25 25 24 23 24 22 20 19 19 19 20 21 21 22 24 25 27 29 30 32 32 32 34 35 35 35 35 34
24 24 25 25 25 25 25 26 27 28 28 28 28 27 26 26 26 26 26 25 23 22 21 21 21 21 22 23 23 24 24 24 24 24 24 24 23 24 24 24 24 26 27 28 28 28 28 28 27 27 26 25 23 23 22 23 24 25 25 23 23 23 21 20 20 19 19 19 21 21 22 24 25 27 30 31 32 33 33 34 35 34 33 33 31
26 26 26 25 25 25 25 26 27 28 29 29 28 27 27 27 27 26 25 23 22 22 22 22 22 23 23 23 24 24 24 24 24 23 23 23 23 24 24 24 25 27 28 28 28 27 27 26 24 23 23 23 22 21 21 21 22 22 22 22 22 22 22 21 21 20 20 21 22 22 24 26 28 30 32 34 35 35 34 34 33 31 30 30 31
26 26 26 25 25 25 25 26 26 28 29 29 28 28 27 28 27 25 24 23 23 24 23 23 23 23 23 23 23 24 23 23 23 23 23 23 23 23 23 24 26 27 26 26 26 26 24 23 22 21 21 21 21 22 22 21 21 21 21 21 20 20 20 21 21 22 23 24 24 25 28 30 31 33 36 37 36 35 33 32 31 30 30 31 32
26 26 26 26 26 25 25 26 26 28 29 29 29 28 28 28 26 25 24 24 25 25 25 24 24 23 23 23 23 23 23 23 23 23 23 22 22 22 22 23 24 24 23 23 23 23 22 22 22 21 20 19 20 21 22 23 24 23 22 20 19 20 21 22 22 22 23 25 26 28 31 33 35 37 37 36 35 33 31 30 30 31 30 28 26
27 27 27 27 26 26 26 28 28 29 29 29 29 29 28 27 26 25 26 26 27 26 25 24 23 22 22 22 22 23 22 23 23 23 22 22 21 21 22 22 22 22 22 23 23 22 22 23 23 22 21 21 21 22 22 23 23 22 21 19 19 20 21 21 21 22 23 25 28 31 33 35 37 37 34 33 31 30 29 30 29 27 23 21 20
29 28 28 28 27 27 28 30 30 30 30 30 29 29 28 27 27 27 28 28 28 27 26 24 23 22 22 22 23 23 22 23 23 22 22 21 21 22 22 22 23 23 23 23 23 23 22 21 22 22 22 22 22 21 20 20 19 19 18 18 19 19 20 20 22 24 26 28 31 33 33 33 33 31 29 28 27 27 28 27 24 20 19 18 19
31 30 30 30 28 28 30 32 32 32 31 31 30 29 29 29 29 29 29 29 29 27 26 24 23 23 23 24 24 23 23 24 24 23 22 22 22 23 23 23 24 23 23 22 22 22 22 21 20 20 20 19 18 18 18 18 17 17 17 17 19 20 21 22 24 26 28 30 31 31 29 28 27 25 23 21 21 23 23 21 18 17 18 20 20
32 33 32 31 30 31 33 34 34 33 33 32 31 30 30 31 31 31 30 30 29 28 27 26 25 25 24 24 24 24 25 25 25 24 23 23 23 24 24 24 24 23 21 21 21 21 21 21 20 20 19 18 17 17 18 18 17 17 18 19 20 21 22 23 24 25 26 27 26 25 25 24 23 20 18 16 16 17 17 17 16 18 20 20 21
32 34 34 32 31 33 35 36 36 35 35 33 32 31 31 32 32 31 31 31 31 30 28 27 27 26 25 25 25 25 26 27 26 25 25 24 24 24 25 25 24 23 21 21 20 19 19 20 20 20 19 19 18 18 18 18 18 18 19 19 20 21 23 22 22 21 21 21 22 22 22 21 20 18 16 15 14 15 16 17 17 19 20 21 21
32 34 35 33 33 36 38 39 38 37 36 34 32 32 32 32 32 32 32 32 32 31 30 29 29 28 27 26 26 26 26 27 28 27 26 25 25 25 25 25 24 23 22 21 19 18 18 18 18 18 18 18 18 18 18 18 18 18 18 18 19 21 21 19 18 17 17 18 18 19 19 19 18 17 15 14 14 15 16 18 18 20 21 21 21
31 34 35 35 36 38 41 41 40 39 37 35 34 33 32 32 32 32 33 33 33 33 32 32 31 30 30 29 28 27 27 28 29 29 28 27 26 26 26 26 26 25 23 20 19 18 18 17 18 18 17 18 18 18 18 18 18 18 17 17 17 17 17 16 15 16 15 15 15 16 16 16 16 16 15 15 16 17 18 19 20 20 21 20 20
28 31 34 36 39 41 43 43 42 41 38 37 36 35 34 33 33 33 33 34 34 35 34 34 34 33 33 32 30 28 28 28 29 30 29 28 28 27 27 27 27 25 23 21 20 19 19 19 18 17 17 18 18 18 18 17 17 16 16 15 15 14 14 14 14 14 14 14 14 14 15 15 15 16 17 17 17 18 20 21 21 21 21 21 20
25 27 31 36 41 43 45 45 44 43 41 40 40 38 37 36 35 35 35 36 36 37 36 36 36 36 35 34 33 30 29 29 30 30 30 30 29 29 28 28 27 25 23 22 21 21 20 19 18 17 18 18 19 18 17 16 16 15 15 15 13 12 12 12 13 13 14 14 14 13 14 15 15 16 18 18 19 20 21 21 22 22 22 22 22
28 27 29 34 40 45 48 48 47 46 44 43 43 42 41 39 38 37 38 38 38 39 38 38 38 38 37 36 35 32 30 30 30 31 31 31 30 30 29 28 27 26 24 24 23 22 21 19 19 19 18 18 18 17 18 17 16 16 15 14 13 12 12 12 12 13 14 14 14 14 14 15 16 17 18 19 19 20 21 21 22 22 22 22 22
29 29 30 33 37 43 49 51 50 49 48 47 46 45 44 43 42 41 41 41 41 41 40 40 40 40 39 38 37 35 32 32 32 32 32 32 32 31 29 28 27 27 26 25 24 22 21 20 20 20 19 19 19 19 19 18 17 16 15 14 14 13 12 12 13 14 15 15 15 15 15 16 17 17 18 18 19 19 20 20 20 21 21 21 21
27 28 30 32 34 38 44 51 54 53 51 50 49 48 47 47 46 45 44 43 44 43 42 42 43 42 41 40 39 37 35 34 33 33 33 33 33 32 31 29 29 28 27 26 24 23 23 22 21 21 20 20 20 20 19 18 16 16 15 14 14 13 12 13 14 15 16 16 16 16 17 18 18 18 18 19 19 19 19 19 20 21 21 21 21
26 27 27 29 30 32 37 44 51 55 55 53 52 50 50 49 49 48 48 47 47 46 45 45 45 44 43 42 41 40 38 36 35 34 34 35 34 33 32 31 30 30 29 27 26 25 24 23 23 22 22 22 21 20 19 17 17 16 15 14 13 12 12 14 15 16 16 16 16 16 17 18 18 18 18 18 19 19 20 20 20 21 21 22 22
29 28 27 27 28 30 32 35 40 46 51 53 53 52 51 51 51 50 50 51 50 49 48 47 46 45 45 44 43 42 40 39 37 36 36 37 36 34 33 33 33 31 30 29 28 27 26 25 24 24 23 22 21 19 18 17 17 16 15 14 13 13 14 15 16 16 16 15 15 15 16 16 17 17 17 17 18 19 19 19 20 20 21 22 21
30 29 28 27 27 29 31 31 32 35 39 43 46 48 50 51 52 53 54 54 53 52 52 50 49 48 47 46 45 44 43 42 40 38 38 38 38 36 34 35 35 34 33 32 30 29 27 27 26 25 23 22 20 19 18 18 17 16 15 14 13 14 15 16 16 15 15 14 14 14 14 14 15 15 15 16 17 18 19 19 19 20 21 21 20
30 30 29 28 28 29 29 30 31 32 33 36 39 42 44 47 50 52 54 55 55 55 54 54 53 52 50 48 47 46 46 45 42 39 39 40 39 37 36 37 37 36 34 33 31 29 28 28 27 25 24 22 21 20 19 18 17 15 14 14 15 15 15 15 14 14 13 13 12 13 13 13 13 14 14 15 16 17 18 19 20 20 21 21 20
27 29 29 29 30 30 30 31 32 33 35 36 38 40 41 43 46 47 49 51 53 54 54 53 53 51 49 48 48 48 48 46 42 39 40 40 39 38 37 37 37 36 35 33 31 30 30 29 28 26 24 22 21 20 20 18 16 15 14 15 15 15 14 14 13 13 12 11 11 11 12 12 13 13 14 14 15 16 18 19 20 20 21 21 21
20 22 23 25 27 28 30 32 33 35 37 38 40 41 42 43 45 46 47 48 49 50 50 51 50 49 48 48 47 47 46 43 40 39 39 38 38 37 37 36 36 35 35 33 32 31 31 30 28 25 24 22 21 21 19 17 16 15 14 14 14 13 13 12 12 11 10 10 10 11 11 12 13 14 14 15 15 16 18 19 20 21 22 22 23
16 16 17 19 20 22 25 28 30 33 35 37 39 40 41 43 44 44 45 45 45 47 47 48 48 48 48 47 46 45 44 42 40 39 37 36 36 37 37 37 37 36 35 33 32 32 32 30 27 25 24 23 22 20 18 16 15 14 14 13 12 11 11 11 10 9 9 10 10 11 12 13 14 15 15 16 16 17 18 19 21 22 22 23 23
18 17 18 19 20 22 24 25 27 30 32 34 36 38 39 41 42 43 43 43 44 45 46 46 47 47 47 47 47 45 44 42 41 39 36 35 36 37 38 38 37 36 34 33 32 32 31 28 26 24 24 22 21 18 16 15 14 13 12 11 10 10 9 9 9 9 9 10 11 12 13 14 15 16 16 17 18 19 20 21 22 22 23 24 24
22 22 22 23 24 25 25 26 27 29 31 33 35 37 39 40 41 42 42 43 43 44 45 46 47 46 46 46 46 45 44 42 40 37 36 35 36 37 38 37 35 34 34 33 32 32 30 27 25 24 23 21 19 17 16 14 13 11 10 9 9 8 8 8 8 9 10 11 12 13 14 15 16 17 18 19 20 21 21 22 23 24 24 25 25
25 25 26 27 27 28 28 29 30 31 32 34 35 37 39 40 40 41 42 42 43 44 44 45 45 45 45 45 44 44 43 42 39 37 35 35 37 38 37 35 33 32 32 32 32 31 29 27 26 24 22 20 18 16 15 13 10 9 8 8 8 7 7 7 8 10 11 12 13 14 15 17 18 19 20 20 21 22 23 23 24 24 25 25 25
25 26 28 29 30 30 30 31 32 33 35 36 36 36 37 39 40 41 42 42 43 43 43 43 43 42 42 42 42 42 41 39 37 36 35 35 37 38 37 35 35 35 34 33 32 30 27 26 25 22 20 18 16 15 13 11 9 8 7 7 6 6 7 8 10 12 13 14 16 17 17 18 19 20 21 21 22 23 23 23 24 24 24 24 25
25 26 27 28 30 31 32 32 33 34 35 36 37 36 36 37 39 40 41 42 42 42 42 42 41 40 39 38 38 38 37 35 34 35 35 36 37 38 38 38 37 37 35 33 31 29 27 25 23 21 19 17 15 14 12 10 9 7 6 5 5 6 8 10 12 13 15 16 18 19 19 20 20 21 22 22 23 23 23 23 23 24 24 24 24
26 27 27 27 28 29 30 31 32 33 34 35 36 37 36 37 38 39 40 41 41 41 41 40 39 39 38 37 35 34 33 32 33 33 33 34 35 36 36 36 35 33 32 30 29 28 26 24 22 20 18 16 14 13 11 9 8 6 5 5 6 8 10 12 13 15 17 18 19 20 20 21 21 22 23 23 23 23 23 23 23 23 23 22 22
27 28 28 27 27 27 28 29 30 32 33 35 35 36 36 36 37 38 39 40 40 40 40 39 39 38 38 37 35 33 32 33 32 31 31 33 35 36 34 33 31 29 28 28 27 25 24 23 21 19 17 15 14 12 10 8 7 5 5 6 8 10 12 13 15 17 19 19 20 21 21 22 22 23 23 24 24 24 23 23 23 23 22 21 21
28 29 30 29 28 27 27 28 29 30 32 33 34 35 35 36 37 37 38 38 39 39 39 38 38 38 38 37 37 36 35 34 34 34 36 37 37 36 34 32 30 28 27 26 25 24 23 22 20 18 16 15 13 11 9 7 6 5 6 8 9 11 14 15 17 18 20 21 21 22 23 23 23 23 24 24 24 23 23 22 21 21 21 21 20
30 31 32 31 30 28 27 27 28 29 30 32 33 33 34 35 36 36 37 37 37 38 38 38 37 37 37 37 37 37 37 36 36 37 39 39 38 35 33 32 31 30 28 27 25 24 22 20 18 17 15 13 11 9 7 6 6 6 8 9 11 13 15 17 19 20 21 21 22 23 23 23 24 24 23 23 23 22 22 21 21 20 20 19 19
31 32 32 32 31 30 28 27 27 28 28 29 30 31 33 33 34 34 35 35 36 36 36 36 36 36 35 35 35 36 35 35 36 38 38 37 35 34 33 32 31 30 27 25 23 22 21 19 17 15 13 11 9 7 6 5 6 8 10 12 13 15 17 19 20 21 22 22 23 23 23 23 23 23 23 22 22 21 20 20 20 19 19 18 17
31 32 32 32 32 31 29 28 27 26 27 28 28 30 31 31 32 32 33 33 34 34 35 35 35 34 33 33 33 33 33 34 35 36 36 35 34 34 33 31 29 26 24 23 21 20 19 17 15 13 11 9 7 6 5 6 8 9 12 13 15 17 19 20 21 22 22 22 22 22 22 22 22 21 21 20 20 19 18 18 18 18 17 17 16
31 31 32 33 32 31 30 29 27 26 26 26 27 27 28 29 30 30 31 32 33 33 33 33 33 32 32 33 33 33 33 34 35 35 35 34 34 32 30 28 26 24 23 22 20 18 16 14 12 10 8 6 5 5 7 8 10 12 14 15 17 19 20 21 22 22 22 22 21 21 20 20 19 19 18 18 17 17 17 17 17 16 16 15 15
32 31 32 33 32 31 30 28 27 27 26 25 25 26 26 27 28 29 29 31 32 32 32 32 32 33 33 34 34 33 33 33 33 33 33 32 31 29 27 26 25 24 22 20 18 16 14 11 9 7 5 5 6 7 9 10 12 14 15 17 19 20 21 21 21 21 21 21 20 19 18 17 17 16 16 15 15 15 15 15 16 16 15 14 14
33 32 31 32 32 31 29 27 27 26 25 25 25 25 25 25 26 27 28 30 30 30 30 31 31 33 34 35 34 33 32 31 30 30 30 29 27 26 25 24 23 21 20 18 15 13 10 8 6 5 5 6 8 9 11 13 14 16 17 18 19 20 21 21 21 20 20 19 17 16 16 15 14 14 14 13 13 14 14 14 15 15 15 14 14
34 32 31 31 30 29 28 27 26 25 24 24 23 24 24 25 25 26 27 28 29 29 30 31 32 34 35 35 34 33 32 30 29 28 27 26 25 24 23 22 21 19 17 14 11 9 6 5 4 5 7 9 10 12 14 15 16 17 18 19 20 20 20 20 19 18 17 17 15 14 14 13 12 12 12 12 12 12 13 13 13 14 14 14 14
34 32 31 29 28 27 26 25 24 23 22 22 22 23 23 24 24 26 26 27 28 29 30 31 33 34 34 34 33 32 30 29 27 27 26 25 24 23 21 20 17 15 12 10 7 5 5 5 6 8 9 11 13 14 16 17 18 19 19 19 19 19 19 18 17 16 15 14 13 13 12 12 11 11 11 11 11 12 12 12 12 13 13 14 14
33 31 30 28 25 24 24 23 21 21 21 21 21 22 22 23 24 26 26 27 28 29 30 32 33 33 32 31 29 28 28 27 26 26 25 24 22 20 17 15 12 10 8 6 5 5 6 7 9 10 12 13 15 16 17 18 18 19 19 19 18 18 17 16 15 14 13 13 12 12 12 11 11 11 11 11 11 11 11 12 12 13 13 13 14
30 29 27 25 23 22 22 21 20 20 20 20 21 22 23 24 25 25 26 27 28 29 30 31 31 30 29 28 27 26 26 25 25 24 22 19 17 15 12 10 9 7 7 6 7 7 8 9 11 12 14 15 16 17 18 18 18 18 18 18 17 16 15 14 13 13 12 12 12 11 11 11 11 11 11 11 11 12 12 12 12 12 13 13 13
26 24 23 22 21 21 21 21 20 20 20 20 21 22 23 24 25 26 27 28 28 28 28 28 27 26 25 26 26 26 25 24 22 20 18 15 13 11 10 9 8 8 7 7 8 9 10 11 13 14 15 16 17 17 18 18 18 17 17 17 16 15 14 13 13 12 12 12 12 11 11 11 11 11 11 12 12 12 12 12 13 13 13 13 13
21 20 20 20 21 22 22 22 21 21 21 21 22 24 25 25 26 26 26 26 26 26 25 24 24 25 26 26 26 25 23 20 18 15 14 12 11 10 9 9 8 8 8 9 9 11 12 13 15 16 16 17 17 17 17 17 17 16 16 15 14 14 13 13 13 13 12 12 12 12 12 11 11 11 11 12 12 12 12 12 13 13 13 14 14
Wind_Direction
239 240 242 243 245 245 245 246 247 248 249 249 249 251 257 262 264 265 265 263 262 261 260 259 259 261 261 261 261 261 261 259 257 256 257 259 261 263 263 262 262 263 265 266 269 273 273 271 266 262 269 282 285 280 271 266 266 265 268 275 279 280 280 279 278 281 286 287 288 288 287 287 287 287 286 288 293 293 285 278 274 268 268 274 273
241 243 243 242 242 242 243 244 245 246 246 247 249 252 256 258 260 260 260 259 258 256 256 257 258 259 258 258 258 258 258 259 258 256 254 253 256 259 260 260 256 255 261 264 264 268 270 267 265 268 277 285 288 281 267 263 268 266 263 270 277 275 272 276 280 282 285 288 290 290 288 286 283 284 288 291 295 296 289 281 276 271 272 276 277
242 243 242 241 241 241 242 242 243 243 244 246 248 251 252 254 255 256 255 254 252 251 252 254 254 255 255 256 256 256 257 258 259 260 259 258 258 257 258 260 256 252 256 259 258 259 262 264 267 270 273 278 283 281 270 266 273 275 269 270 276 276 275 281 284 282 282 286 289 290 287 285 284 286 290 294 296 296 292 286 279 273 273 277 278
241 242 242 242 242 241 240 240 241 242 243 245 247 248 249 250 251 250 248 247 247 248 249 250 250 251 252 254 256 258 259 260 261 263 264 264 263 261 258 256 255 250 250 251 252 256 262 264 265 266 272 277 277 275 271 269 273 277 274 272 275 275 277 285 289 283 278 277 282 288 290 290 289 289 292 295 296 296 295 291 284 276 276 280 280
241 242 243 244 243 242 241 240 240 241 243 244 245 246 246 246 244 243 242 243 244 244 245 246 247 248 251 253 257 260 263 265 265 265 266 264 264 264 261 256 249 243 244 247 253 260 264 265 266 270 279 280 272 267 270 273 272 271 271 270 271 272 275 285 292 288 281 276 277 284 289 288 287 287 291 295 296 298 299 297 291 284 282 282 278
243 244 245 245 244 244 242 242 241 242 242 241 241 241 239 238 238 239 240 240 240 239 240 243 245 247 250 253 257 260 262 264 264 264 265 265 264 264 261 254 245 241 245 250 254 257 258 261 266 272 275 274 270 267 267 270 271 271 272 271 270 271 275 283 289 289 285 280 277 278 279 278 279 283 289 294 295 297 300 300 297 292 288 283 277
246 247 248 248 248 248 246 244 242 240 239 237 235 234 233 235 236 236 236 235 235 235 237 240 243 247 251 253 256 258 259 260 262 263 265 265 266 265 260 254 246 243 247 251 253 255 256 260 265 266 264 266 270 271 269 266 265 268 271 271 269 270 273 279 282 280 280 279 278 278 279 279 280 283 288 292 293 294 297 300 300 298 294 288 280
248 249 249 250 252 253 251 248 244 240 236 232 230 231 233 234 233 231 230 229 230 233 236 239 243 246 250 252 253 255 256 258 259 262 264 264 264 265 262 256 249 246 248 250 252 255 257 259 259 256 257 261 264 266 268 265 263 265 266 265 265 268 270 272 273 271 273 278 281 283 285 284 284 286 288 291 293 293 294 296 297 297 296 291 284
249 248 250 252 255 256 255 252 247 241 234 229 228 231 231 228 226 225 225 226 229 233 236 240 244 246 248 250 251 253 255 256 258 260 262 264 265 266 264 259 253 251 253 255 257 258 257 255 253 251 254 259 261 262 265 266 265 265 264 263 264 266 266 264 265 269 273 277 279 282 283 284 286 289 290 291 292 293 294 294 293 293 294 291 285
250 250 252 255 256 255 254 253 246 237 230 226 227 228 224 221 220 221 223 227 231 235 238 241 244 245 247 249 251 253 254 256 258 259 260 262 264 265 264 261 257 256 257 257 256 256 254 252 251 252 254 256 259 263 267 270 268 263 260 259 260 263 265 265 266 270 272 273 275 278 281 284 286 288 289 289 290 291 291 291 290 290 290 289 287
249 250 253 255 254 252 250 248 240 229 223 222 222 220 217 217 219 222 226 230 233 236 238 241 243 245 247 249 251 254 255 256 258 258 258 260 262 263 263 262 259 258 257 255 254 254 253 250 250 253 255 256 257 259 263 267 268 265 263 261 260 264 267 266 265 265 266 268 272 277 281 284 285 286 287 287 287 288 288 288 287 288 289 289 288
249 250 252 254 251 247 244 239 230 221 218 217 216 214 215 218 221 225 229 233 235 237 239 241 244 245 248 251 253 255 256 256 256 256 257 258 259 261 262 262 260 260 258 257 257 256 252 248 248 252 257 260 260 259 260 262 265 266 266 266 267 267 266 263 261 261 263 268 272 276 279 283 285 286 287 287 286 285 285 285 287 290 290 288 288
250 250 251 252 248 244 239 232 224 218 215 213 212 214 218 222 225 228 232 234 237 238 240 242 245 248 251 254 256 257 256 255 254 254 254 256 257 259 261 262 262 261 258 255 253 251 248 246 247 250 254 257 259 261 261 261 262 263 263 264 265 264 262 260 260 263 266 270 274 276 279 283 286 287 286 284 283 283 284 286 288 288 287 286 289
252 251 251 250 245 240 234 227 220 215 212 212 214 218 222 225 228 231 233 235 238 240 242 244 248 252 255 257 258 257 255 253 252 252 253 254 256 258 259 259 259 257 253 250 249 249 250 249 248 249 252 255 258 260 261 261 261 261 260 263 265 264 264 264 266 270 273 276 279 281 284 287 288 288 285 283 282 282 284 285 283 279 283 290 293
254 252 250 247 242 236 229 221 216 214 214 216 218 222 225 228 231 233 234 237 240 242 244 247 251 254 257 258 258 257 254 252 251 252 254 255 256 257 257 257 256 254 252 250 250 250 251 250 249 249 252 255 255 257 260 263 263 261 260 262 265 266 267 268 270 273 277 280 283 286 288 290 290 289 287 284 281 280 279 277 275 279 289 295 296
257 253 249 245 239 231 223 218 216 216 218 219 221 224 228 232 234 235 236 239 242 244 246 249 252 256 258 260 260 258 255 253 252 253 254 256 256 256 255 255 254 252 249 248 248 247 246 246 248 250 253 253 251 254 260 264 263 262 261 263 266 268 269 272 275 278 282 284 287 289 292 295 295 293 290 284 277 272 269 271 278 288 295 296 297
259 254 248 243 237 228 221 218 219 220 221 223 225 228 232 235 237 238 239 242 245 247 250 252 255 257 259 261 262 261 257 255 255 255 255 256 256 256 255 253 252 250 246 243 242 241 240 242 246 251 252 251 250 252 256 260 262 263 263 265 269 272 275 279 282 285 287 288 290 293 296 298 297 292 287 280 271 267 269 277 286 291 293 295 297
261 254 248 242 234 226 221 221 222 224 224 226 229 232 236 239 241 242 244 246 249 251 253 254 256 257 259 261 263 262 259 257 255 256 256 256 256 255 254 252 249 247 243 239 237 236 238 242 246 249 250 250 252 253 253 255 259 262 264 268 272 274 278 283 287 287 288 289 290 293 296 297 295 289 283 276 272 272 277 281 285 286 289 293 295
261 256 249 241 233 226 223 224 225 226 227 229 232 236 238 240 243 244 246 248 250 252 253 254 255 257 258 260 261 262 261 258 256 256 256 256 255 254 253 251 248 245 242 238 236 237 240 244 246 248 249 249 251 253 253 254 256 260 266 268 270 272 275 279 283 285 289 293 295 297 297 296 294 288 282 276 274 274 276 277 279 281 283 286 289
263 260 253 244 236 228 225 227 228 228 230 232 234 237 238 240 242 245 247 249 250 252 253 253 255 256 257 258 260 262 262 259 256 256 255 255 255 254 252 251 248 245 241 238 238 238 240 243 245 247 248 248 250 253 256 257 259 262 264 262 261 264 268 275 282 288 295 300 301 301 300 297 294 289 283 279 275 273 273 273 274 276 278 280 282
264 262 257 250 241 233 228 229 230 231 232 233 235 237 238 240 242 244 246 248 249 252 253 253 254 255 255 256 258 260 261 260 257 255 254 253 253 253 252 250 246 243 239 238 237 237 238 239 241 243 245 247 249 251 254 256 256 256 255 254 257 263 270 278 286 292 296 298 298 297 294 291 288 286 283 280 276 273 272 272 274 275 276 279 280
265 264 261 256 248 240 234 232 232 233 233 234 236 238 239 240 242 243 245 247 249 251 253 253 254 254 254 254 256 258 259 260 258 255 253 252 252 253 251 247 241 237 235 235 235 234 234 235 237 239 241 244 247 248 249 249 248 248 250 255 263 270 275 281 287 291 294 295 295 293 290 286 283 281 281 280 279 278 277 276 277 277 278 279 281
270 269 267 263 256 248 242 238 237 237 236 236 237 239 240 241 242 244 245 247 249 250 252 253 253 253 253 254 255 257 257 258 257 256 254 252 252 252 250 244 238 234 232 233 233 232 232 232 234 236 239 242 244 244 243 243 243 245 251 258 265 271 277 283 288 292 294 295 295 293 291 288 285 284 283 283 282 282 282 281 280 280 279 280 282
274 270 267 264 260 256 250 245 242 242 242 242 242 242 243 244 244 245 247 249 250 251 252 252 253 253 253 254 255 256 257 256 256 256 254 252 252 250 246 240 235 232 232 232 233 232 231 231 232 235 237 237 238 239 240 242 244 246 251 257 264 271 278 283 287 289 289 290 291 290 289 288 289 288 287 287 286 285 284 284 283 282 281 281 282
273 269 266 263 261 261 258 253 249 247 247 248 248 247 247 248 248 248 249 250 251 252 252 253 253 253 254 254 255 256 257 256 256 255 253 251 250 247 243 238 233 231 231 232 233 232 231 231 232 233 234 233 234 237 240 243 245 247 250 256 264 272 278 280 282 282 283 285 286 287 287 289 291 292 291 291 291 289 288 286 285 284 284 284 286
270 270 268 265 263 262 263 261 257 253 252 252 253 254 254 254 254 254 253 253 253 253 253 253 253 253 254 254 255 255 255 255 255 253 251 249 248 245 239 234 231 230 229 230 231 230 230 231 231 231 232 233 235 238 240 242 244 247 251 256 263 269 273 276 278 280 282 285 287 290 293 295 297 297 298 299 298 295 294 293 291 290 290 292 294
266 267 267 266 264 262 261 262 262 259 257 256 257 258 259 260 260 259 257 256 255 255 254 254 254 254 255 255 254 254 254 253 252 251 249 247 246 242 236 231 229 227 226 227 228 228 229 230 230 230 231 234 236 238 240 242 244 247 252 258 263 268 271 275 279 281 285 289 294 297 300 302 303 304 305 305 304 302 302 301 300 299 299 301 303
260 262 262 262 261 260 260 260 259 259 258 258 258 259 260 260 261 261 261 260 259 259 258 258 257 257 257 256 255 254 253 252 252 253 251 248 244 240 234 230 226 224 224 225 226 228 229 229 228 229 230 233 235 237 238 241 244 248 253 259 264 269 273 277 281 285 291 296 300 303 305 306 308 309 310 311 310 309 308 307 307 308 309 310 311
259 259 259 259 258 257 257 257 256 256 256 256 257 257 259 260 261 262 263 262 261 260 260 260 260 259 258 257 256 257 257 257 258 257 253 248 243 240 235 230 226 223 223 225 226 227 227 227 226 227 229 231 233 235 238 240 243 247 253 260 266 272 277 281 285 291 297 301 302 303 306 308 310 311 313 314 314 312 311 311 311 312 312 312 312
265 263 262 261 260 260 259 258 257 257 256 256 256 257 258 260 261 262 263 262 262 261 260 260 261 260 259 258 258 258 259 260 260 258 254 248 242 238 235 231 226 223 223 224 225 226 226 225 225 226 227 229 231 233 236 238 242 248 255 261 268 275 280 285 290 294 298 300 301 304 307 309 311 312 314 315 316 314 313 312 311 311 310 310 309
276 277 276 273 271 269 266 265 263 262 261 261 261 261 262 262 263 265 266 266 265 264 263 262 262 261 260 259 258 256 256 256 256 255 252 247 241 237 233 229 225 224 224 225 225 225 224 223 223 223 225 227 229 231 233 237 242 249 255 262 270 277 282 286 289 293 297 301 304 308 311 311 313 314 314 315 314 312 310 309 309 308 308 308 309
276 277 278 278 277 276 274 272 270 268 266 265 263 263 264 263 263 264 265 265 265 264 263 263 262 261 259 258 256 254 253 254 254 252 247 241 238 236 232 228 225 224 223 223 222 222 222 221 221 221 223 225 226 228 232 236 242 249 255 263 271 275 278 282 288 294 300 306 308 310 311 312 313 313 312 311 310 309 308 308 309 309 309 311 313
273 274 275 276 275 274 273 273 272 271 270 268 266 265 264 264 264 263 263 263 263 263 262 261 260 259 257 255 253 252 251 252 253 251 244 236 232 231 231 229 227 225 222 220 218 219 219 218 218 219 220 222 223 226 230 234 240 246 252 258 264 269 275 282 291 301 306 308 309 309 309 309 309 308 308 308 309 310 310 311 312 312 313 314 316
271 272 274 275 274 273 271 270 270 270 271 270 269 267 266 265 266 265 264 263 262 262 262 261 260 259 256 253 250 249 248 248 249 247 242 233 229 228 228 227 224 220 217 217 218 218 217 216 215 216 218 218 220 223 226 229 231 234 239 247 257 268 281 292 300 304 306 306 305 304 304 305 305 306 307 310 311 312 312 313 313 313 313 314 316
272 271 271 272 272 271 270 269 268 269 270 270 270 269 268 267 266 265 264 264 263 262 261 260 259 258 255 252 248 247 246 246 244 242 238 233 229 227 225 221 216 213 211 213 215 216 215 215 215 214 214 215 217 218 218 217 217 219 226 239 256 275 292 299 302 303 303 303 303 303 304 306 307 308 310 311 312 312 312 312 312 311 312 313 315
278 274 272 272 272 271 271 269 268 268 268 269 270 270 268 266 265 264 264 263 261 260 259 258 256 254 252 250 249 247 245 243 240 237 235 233 230 227 222 217 213 211 211 211 212 211 210 211 212 211 211 211 210 208 204 202 205 211 222 243 267 287 295 298 300 300 301 302 303 304 306 307 308 309 310 310 311 310 310 310 310 310 310 312 314
284 281 278 276 275 273 272 270 269 267 266 266 268 268 267 265 263 262 261 261 259 258 257 256 253 249 246 244 244 244 242 238 236 235 234 231 227 224 219 215 214 213 212 212 212 209 207 207 207 207 206 202 198 196 195 195 200 209 227 256 278 289 293 296 297 298 299 300 302 303 305 306 307 308 307 307 308 308 308 309 309 309 309 311 311
289 287 285 282 279 276 274 273 270 268 266 265 265 266 266 265 263 261 260 259 258 257 256 254 250 246 243 239 237 235 233 232 231 230 225 220 217 214 212 211 212 213 211 209 209 207 205 205 203 199 196 191 188 189 190 192 201 219 246 269 282 288 291 294 295 297 298 300 302 303 304 305 306 306 305 306 307 307 309 310 309 309 310 310 309
294 291 289 286 283 279 277 274 272 269 267 266 265 265 264 263 262 261 259 258 257 255 253 251 248 245 241 237 233 229 228 228 228 222 215 211 210 209 208 207 206 205 204 203 203 202 201 199 194 189 186 184 185 187 191 199 217 242 263 276 284 289 292 295 296 298 300 301 302 303 304 304 304 304 304 305 306 307 308 309 309 309 310 311 311
298 295 292 289 286 282 279 276 273 270 267 266 265 264 264 263 262 261 260 258 256 254 252 250 247 243 240 236 233 231 230 229 226 218 211 208 207 206 206 205 201 198 197 197 197 196 192 188 185 183 181 181 184 190 199 217 240 262 276 284 290 294 295 297 298 299 300 301 301 302 302 302 302 302 303 304 305 306 308 309 310 311 311 312 313
299 296 294 291 288 285 282 278 275 271 268 266 265 263 263 262 262 261 259 257 256 254 251 249 247 244 240 237 235 235 234 231 225 217 212 209 208 206 204 202 199 196 192 190 187 186 183 180 179 180 179 182 190 200 217 241 263 278 286 292 295 296 297 298 298 298 299 299 299 299 299 299 300 300 301 302 303 304 307 308 308 309 310 311 312
297 295 292 289 287 285 283 281 278 274 270 267 265 263 263 262 261 260 259 257 254 252 249 247 244 242 238 235 233 232 231 228 224 218 213 211 210 206 202 198 194 189 184 179 177 178 177 176 177 180 183 190 202 219 244 265 278 286 291 294 297 297 298 298 297 297 297 296 295 295 295 296 297 297 298 299 301 302 303 304 303 304 306 307 308
292 292 289 286 283 281 280 279 276 273 270 268 266 265 264 262 261 259 257 255 252 250 247 244 241 237 232 228 227 225 223 221 219 216 213 210 207 203 198 191 183 177 173 172 171 172 173 175 179 184 191 206 227 251 268 278 285 290 293 296 298 298 297 297 295 295 294 293 293 293 293 293 294 295 295 297 298 299 300 301 300 302 303 303 306
285 285 284 282 279 277 276 274 272 270 268 266 264 263 261 260 258 256 253 251 248 246 243 240 236 231 226 223 220 219 217 215 213 212 209 206 201 196 189 182 174 170 168 167 168 170 173 178 185 195 212 237 256 271 279 284 289 293 295 297 297 296 295 294 293 292 292 291 291 292 291 291 292 293 294 295 296 297 299 300 300 301 302 302 304
282 279 278 277 275 274 272 270 268 266 263 261 260 258 256 255 253 250 247 245 242 240 237 234 230 226 223 219 215 212 209 207 206 205 203 199 193 186 179 172 167 165 164 164 167 171 175 183 199 221 248 265 274 282 286 289 293 296 297 297 296 294 293 292 291 290 290 289 289 289 290 290 291 292 293 295 296 297 300 300 300 301 302 302 302
281 277 274 271 269 268 267 265 263 261 260 259 258 256 253 250 247 243 241 239 236 234 230 226 222 220 218 214 210 206 202 200 197 195 192 187 180 173 168 164 162 162 163 165 168 174 181 202 233 254 267 275 280 285 289 292 295 296 295 294 293 292 291 290 289 289 288 287 287 288 288 290 291 292 293 296 298 299 301 302 301 301 302 301 300
278 275 271 267 263 261 259 257 256 255 255 254 253 251 249 245 241 237 235 232 230 227 224 220 216 214 211 207 204 199 194 190 187 183 178 173 168 164 162 161 160 161 162 165 172 186 208 236 254 263 271 278 283 288 291 294 295 294 293 292 290 289 288 287 285 284 284 284 286 287 289 290 292 294 296 300 301 303 305 306 304 303 301 300 299
273 271 268 264 259 256 253 251 249 248 247 246 246 244 241 238 234 231 227 225 223 220 217 213 210 206 204 201 197 191 184 178 173 169 165 162 159 158 159 159 159 162 168 179 197 219 235 250 262 271 278 284 288 291 293 293 292 291 290 289 287 285 284 282 281 280 281 283 285 287 289 291 294 296 299 303 305 307 308 308 306 304 302 301 300
267 264 261 258 255 252 250 247 243 240 240 239 238 235 232 229 226 223 220 218 216 213 211 208 205 201 197 192 185 177 170 165 161 159 157 155 156 158 160 164 171 181 194 207 224 240 253 264 273 280 285 288 290 291 291 290 289 288 286 285 283 281 280 279 278 279 281 282 284 286 289 291 294 298 302 305 308 309 310 309 307 305 304 302 301
260 257 254 251 249 247 245 242 238 235 234 233 230 227 225 222 219 217 214 211 208 205 203 201 197 192 185 177 168 161 158 156 156 156 157 159 163 168 175 185 194 205 217 231 245 257 268 276 281 285 287 289 290 290 288 286 285 284 282 280 279 277 276 276 277 278 279 280 282 285 288 292 296 301 304 307 308 310 310 310 309 308 307 306 305
254 250 247 245 244 242 241 239 235 231 229 226 224 222 219 217 214 211 208 205 200 196 191 185 178 170 163 158 155 153 153 154 157 160 165 173 180 188 195 205 214 226 239 253 265 274 280 284 286 288 289 288 287 286 284 282 281 279 278 276 274 273 273 274 274 275 277 279 282 286 291 295 299 302 304 305 307 309 310 311 310 310 310 309 308